Regional Weather Roundup
Issued by NWS Upton, NY

Current Version | Previous Version | Graphics & Text | Print | Product List | Glossary Off
Versions: 1 2 3 4 5 6 7 8 9 10 11 12 13 14 15 16 17 18 19 20 21 22 23 24 25 26 27 28 29 30 31 32 33 34 35 36 37 38 39 40 41 42 43 44 45 46 47 48 49 50

000
ASUS41 KOKX 291904
RWROKX

REGIONAL WEATHER ROUNDUP
NATIONAL WEATHER SERVICE NEW YORK NY
300 PM EDT SAT AUG 29 2015

NOTE: "FAIR" INDICATES FEW OR NO CLOUDS BELOW 12,000 FEET WITH NO
SIGNIFICANT WEATHER AND/OR OBSTRUCTIONS TO VISIBILITY.

NYZ071-072-176-178-NJZ106-104-292000-
NEW YORK CITY METRO AREA


CITY           SKY/WX    TMP DP  RH WIND       PRES   REMARKS
CENTRAL PARK   MOSUNNY   86  54  33 CALM      30.16F
LAGUARDIA APRT PTSUNNY   85  53  33 SW6       30.13F
KENNEDY INTL   PTSUNNY   82  58  43 S12       30.15F
NEWARK/LIBERTY PTSUNNY   83  61  47 SE9G17    30.13F
BRNX BOT. GARD   N/A     84  55  37 SW2       30.12F
TETERBORO      PTSUNNY   85  53  33 S6        30.12F
$$

NYZ177-179-078>081-292000-
LONG ISLAND NEW YORK

CITY           SKY/WX    TMP DP  RH WIND       PRES   REMARKS
FARMINGDALE    MOSUNNY   83  57  41 SW10      30.14F
ISLIP          PTSUNNY   81  58  45 S12       30.13F
SHIRLEY        MOSUNNY   80  60  50 S13       30.16F
WESTHAMPTON    PTSUNNY   79  56  45 S12       30.17F
MONTAUK POINT    N/A     81  61  50 VRB7      30.16F
$$

NYZ052-065-067-292000-
HUDSON VALLEY

CITY           SKY/WX    TMP DP  RH WIND       PRES   REMARKS
WHITE PLAINS   PTSUNNY   82  55  39 NE5       30.14F
NEWBURGH       MOSUNNY   81  61  50 W12       30.16F
MONTGOMERY     SUNNY     82  59  45 S9        30.13F
POUGHKEEPSIE   MOSUNNY   84  56  38 N5        30.12F
ALBANY         PTSUNNY   79  58  48 S9        30.13F
$$

NJZ001-105-106-008-010-013-015-019>022-104-292000-
NEW JERSEY

CITY           SKY/WX    TMP DP  RH WIND       PRES   REMARKS
NEWARK/LIBERTY PTSUNNY   83  61  47 SE9G17    30.13F
TETERBORO      PTSUNNY   85  53  33 S6        30.12F
CALDWELL       MOSUNNY   84  55  36 CALM      30.14F
MORRISTOWN     PTSUNNY   86  57  37 NW8       30.14F
SOMERVILLE     MOSUNNY   85  59  41 VRB7      30.12F
SUSSEX         MOSUNNY   81  58  45 VRB7      30.14F
ANDOVER          N/A     79  61  53 SW3       30.15F
TRENTON        PTSUNNY   85  60  42 SW12      30.14F
MILLVILLE      MOSUNNY   84  61  45 VRB7      30.15F
ATLANTIC CITY  PTSUNNY   82  63  52 S9        30.15F
WRIGHTSTOWN    MOSUNNY   85  60  42 VRB3      30.11F
TOMS RIVER     MOSUNNY   84  61  45 SE8       30.15F
BELMAR         MOSUNNY   81  61  50 S9        30.15F
$$

PAZ047>061-062-071-292000-
EASTERN PENNSYLVANIA

CITY           SKY/WX    TMP DP  RH WIND       PRES   REMARKS
PHILADELPHIA   MOSUNNY   86  58  38 SW7       30.14F
ALLENTOWN      MOSUNNY   84  61  45 CALM      30.14F
SCRANTON       PTSUNNY   82  59  45 VRB5      30.13F
$$

CTZ002-004>006-009-010-012-RIZ004-006-007-MAZ004-011-015-292000-
SOUTHERN NEW ENGLAND
 IN CT

CITY           SKY/WX    TMP DP  RH WIND       PRES   REMARKS
BRADLEY INTL   PTSUNNY   82  55  39 W7        30.13F
HARTFORD       MOSUNNY   82  55  39 NW7       30.13F
DANBURY        MOSUNNY   79  55  43 W6        30.16F
WTRBRY/OXFORD  NOT AVBL
BRIDGEPORT     SUNNY     83  57  41 SW12      30.14F
MERIDEN        SUNNY     83  54  36 SW7       30.13F
NEW HAVEN      MOSUNNY   80  61  52 SW9       30.14F
CHESTER        NOT AVBL
GROTON         SUNNY     79  61  53 SW13      30.14F
WILLIMANTIC    MOSUNNY   80  54  40 VRB3      30.14F

 IN RI

CITY           SKY/WX    TMP DP  RH WIND       PRES   REMARKS
PROVIDENCE     CLOUDY    81  55  40 SW8       30.14F
BLOCK ISLAND   SUNNY     77  59  53 SW13      30.17F
WESTERLY       SUNNY     80  56  43 SW8       30.16F

 IN MA

CITY           SKY/WX    TMP DP  RH WIND       PRES   REMARKS
BOSTON         PTSUNNY   81  54  39 W8        30.12F
WORCESTER      PTSUNNY   74  53  48 SW7G18    30.16F
WESTFIELD      PTSUNNY   81  55  40 NW7       30.14F
PROVINCETOWN   PTSUNNY   79  55  44 S10       30.14F
NANTUCKET      MOSUNNY   75  66  73 SW9       30.17F
$$

ANZ330-335-338-340-345-350-353-355-292000-
COASTAL MARINE OBSERVATIONS


STATION/POSITION TIME  SKY/WX   TEMP    WIND        PRES    VSBY  WAVE
                                AIR SEA DIR/SP/G                  HT/PER
                 (UTC)          (F)     (DEG/KT/KT) (MB)    (MI)  (FT/S)
NY HARB ENTRANCE 1750            76 77  160/  8/ 10 1022.0          3/11
4S FIRE IS       NOT AVBL
20S FIRE ISLAND  1750            74 76  210/  4/  6 1022.4          3/11
GREAT SOUTH BAY  1800            75 79  210/ 12/ 14   N/A
23SW MTP         1850            74 74  230/  8/  8 1021.3          2/ 9
HUDSON CANYON    NOT AVBL
KINGS POINT      NOT AVBL
EXECUTION ROCKS  1800            79     150/  4/  6   N/A
CENTRAL LI SOUND NOT AVBL
EASTERN LI SOUND 1800            73 71  240/ 10/ 12   N/A
ROBBINS REEF     NOT AVBL
$$


>>>>>>>>>>>>>>>>>>>>>>>>>>>> KEY <<<<<<<<<<<<<<<<<<<<<<<<<<<
>                                                          <
>     SKY/WX - SKY CONDITION/PRESENT WEATHER               <
>     TMP    - TEMPERATURE IN FAHRENHEIT                   <
>     DP     - DEWPOINT IN FAHRENHEIT                      <
>     RH     - RELATIVE HUMIDITY IN PERCENT                <
>     WIND   - DIRECTION AND SPEED IN MPH                  <
>     PRES   - MEAN SEA LEVEL PRESSURE IN INCHES OF HG     <
>     WCI    - WIND CHILL INDEX                            <
>     VSB    - VISIBILITY IN MILES                         <
>     HX     - HEAT INDEX                                  <
>     TC     - TEMPERATURE IN CELSIUS                      <
>     VRB    - VARIABLE WIND DIRECTION                     <
>                                                          <
>>>>>>>>>>>>>>>>>>>>>>>>>>>> KEY <<<<<<<<<<<<<<<<<<<<<<<<<<<




USA.gov is the U.S. government's official web portal to all federal, state and local government web resources and services.